Main page
METAR-TAF:

METAR-TAF

Airports :

Troll A, Norway

Oil platform

latitude: 60-38-42N, longitude: 3-43-29E, elevation: 20 m

Current weather observation

The report was made 25 minutes ago, at 06:50 UTC
Wind 38 kt from the Southeast
Temperature 13°C
Humidity 88%
Pressure 996 hPa
Visibility 10 km or more
light rain showers

METAR: ENQA 190650Z AUTO 14038KT 9999NDV -SHRA BKN012/// BKN061/// 13/11 Q0996 W11/S4

Time: 09:15 (07:15 UTC)


TAF: missing

Weather observations and forecasts of more than 4000 airports (METAR and TAF reports).

The available stations are represented by yellow and red dots on the map.

Hover mouse over dot to see the name of the station.

Then click to see weather observations and forecasts.

To change the map : click on the green buttons with a black cross to zoom in, on the green button with a dash to zoom out, or on the green arrows for adjacent maps.


METAR-TAF: